Tracking 20066 objects as of 6-Dec-2019
HD Live streaming from Space Station
objects crossing your sky now

COSMOS 875

Track COSMOS 875 now!
10-day predictions
COSMOS 875 is classified as:


NORAD ID: 9592
Int'l Code: 1976-118E
Perigee: 1,443.8 km
Apogee: 1,470.4 km
Inclination: 74.0 °
Period: 114.9 minutes
Semi major axis: 7828 km
RCS: 0.6944 m2 (medium)
Launch date: December 7, 1976
Source: Commonwealth of Independent States (former USSR) (CIS)
Launch site: PLESETSK MISSILE AND SPACE COMPLEX (PKMTR)
aabbcc
Your satellite tracking list
Your tracking list is empty




NASA's NSSDC Master Catalog

Two Line Element Set (TLE):
1  9592U 76118E   19339.88456889 -.00000006 +00000-0 +60971-4 0  9993
2  9592 074.0290 122.6008 0016991 102.5708 065.6870 12.53476201967282
Source of the keplerian elements: AFSPC